When you browse on this site, cookies collect data to enhance your experience and personalize the content and advertising you see.
Visit our Privacy Policy to learn more. By continuing to use the site, you agree to this use of cookies and data.
  • In Romania
  • List of Countries
  • For 7 days
  • Water Temperature
  • Satellite Maps
  • Weather Map
  • Weather Widgets
  • user-avatar
    Login

    Hourly Weather Shahabad

    Today, 25 April, Thursday

    Time Temperature Precipitation Wind Pressure Humidity
    00:00 +32°C° 0 mm 2 mps 739 mmHg 27%
    01:00 +32°C° 0 mm 2 mps 739 mmHg 29%
    02:00 +31°C° 0 mm 2 mps 739 mmHg 30%
    03:00 +31°C° 0 mm 2 mps 739 mmHg 32%
    04:00 +30°C° 0 mm 2 mps 739 mmHg 33%
    05:00 +28°C° 0 mm 0 mps 739 mmHg 30%
    06:00 +32°C° 0 mm 1 mps 739 mmHg 28%
    07:00 +33°C° 0 mm 1 mps 740 mmHg 25%
    08:00 +36°C° 0 mm 2 mps 740 mmHg 23%
    09:00 +38°C° 0 mm 2 mps 740 mmHg 20%
    10:00 +41°C° 0 mm 1 mps 740 mmHg 18%
    11:00 +43°C° 0 mm 1 mps 740 mmHg 15%
    12:00 +45°C° 0 mm 2 mps 739 mmHg 14%
    13:00 +46°C° 0 mm 3 mps 739 mmHg 13%
    14:00 +48°C° 0 mm 4 mps 738 mmHg 11%
    15:00 +47°C° 0 mm 4 mps 738 mmHg 11%
    16:00 +47°C° 0 mm 4 mps 737 mmHg 11%
    17:00 +47°C° 0 mm 5 mps 737 mmHg 10%
    18:00 +44°C° 0 mm 3 mps 737 mmHg 11%
    19:00 +41°C° 0 mm 2 mps 737 mmHg 13%
    20:00 +39°C° 0 mm 1 mps 737 mmHg 14%
    21:00 +37°C° 0 mm 1 mps 737 mmHg 15%
    22:00 +36°C° 0 mm 1 mps 737 mmHg 16%
    23:00 +33°C° 0 mm 0 mps 737 mmHg 17%

    Tomorrow, 26 April, Friday

    Time Temperature Precipitation Wind Pressure Humidity
    00:00 +33°C° 0 mm 0 mps 737 mmHg 17%
    01:00 +34°C° 0 mm 1 mps 737 mmHg 18%
    02:00 +34°C° 0 mm 1 mps 736 mmHg 18%
    03:00 +33°C° 0 mm 1 mps 736 mmHg 19%
    04:00 +32°C° 0 mm 1 mps 736 mmHg 21%
    05:00 +31°C° 0 mm 1 mps 736 mmHg 22%
    06:00 +33°C° 0 mm 1 mps 737 mmHg 20%
    07:00 +35°C° 0 mm 1 mps 737 mmHg 19%
    08:00 +37°C° 0 mm 1 mps 738 mmHg 17%
    09:00 +40°C° 0 mm 1 mps 738 mmHg 15%
    10:00 +42°C° 0 mm 1 mps 738 mmHg 13%
    11:00 +45°C° 0 mm 2 mps 738 mmHg 11%
    12:00 +46°C° 0 mm 3 mps 737 mmHg 10%
    13:00 +48°C° 0 mm 4 mps 737 mmHg 8%
    14:00 +49°C° 0 mm 5 mps 736 mmHg 7%
    15:00 +48°C° 0 mm 5 mps 736 mmHg 7%
    16:00 +48°C° 0 mm 5 mps 735 mmHg 7%
    17:00 +47°C° 0 mm 6 mps 735 mmHg 8%
    18:00 +45°C° 0 mm 5 mps 735 mmHg 9%
    19:00 +43°C° 0 mm 4 mps 736 mmHg 10%
    20:00 +40°C° 0 mm 3 mps 737 mmHg 12%
    21:00 +39°C° 0 mm 3 mps 737 mmHg 12%
    22:00 +38°C° 0 mm 3 mps 737 mmHg 12%
    23:00 +37°C° 0 mm 3 mps 737 mmHg 13%

    Day after tomorrow, 27 April, Saturday

    Time Temperature Precipitation Wind Pressure Humidity
    00:00 +36°C° 0 mm 3 mps 737 mmHg 14%
    01:00 +35°C° 0 mm 3 mps 737 mmHg 15%
    02:00 +34°C° 0 mm 3 mps 736 mmHg 16%
    03:00 +34°C° 0 mm 3 mps 736 mmHg 17%
    04:00 +33°C° 0 mm 3 mps 736 mmHg 18%
    05:00 +33°C° 0 mm 3 mps 736 mmHg 19%
    06:00 +35°C° 0 mm 4 mps 737 mmHg 16%
    07:00 +37°C° 0 mm 4 mps 737 mmHg 14%
    08:00 +40°C° 0 mm 5 mps 738 mmHg 11%
    09:00 +42°C° 0 mm 6 mps 738 mmHg 9%
    10:00 +45°C° 0 mm 7 mps 738 mmHg 7%
    11:00 +48°C° 0 mm 8 mps 738 mmHg 5%
    12:00 +49°C° 0 mm 8 mps 737 mmHg 5%
    13:00 +49°C° 0 mm 8 mps 736 mmHg 4%
    14:00 +50°C° 0 mm 8 mps 735 mmHg 4%
    15:00 +50°C° 0 mm 8 mps 735 mmHg 4%
    16:00 +49°C° 0 mm 8 mps 735 mmHg 5%
    17:00 +48°C° 0 mm 8 mps 734 mmHg 5%
    18:00 +45°C° 0 mm 7 mps 735 mmHg 6%
    19:00 +44°C° 0 mm 6 mps 735 mmHg 7%
    20:00 +41°C° 0 mm 5 mps 736 mmHg 8%
    21:00 +40°C° 0 mm 5 mps 736 mmHg 9%
    22:00 +39°C° 0 mm 5 mps 736 mmHg 9%
    23:00 +37°C° 0 mm 5 mps 736 mmHg 10%

    28 April, Sunday

    Time Temperature Precipitation Wind Pressure Humidity
    00:00 +37°C° 0 mm 5 mps 736 mmHg 10%
    01:00 +36°C° 0 mm 5 mps 735 mmHg 11%
    02:00 +35°C° 0 mm 5 mps 735 mmHg 11%
    03:00 +34°C° 0 mm 4 mps 735 mmHg 12%
    04:00 +33°C° 0 mm 4 mps 735 mmHg 12%
    05:00 +31°C° 0 mm 3 mps 735 mmHg 13%
    06:00 +35°C° 0 mm 4 mps 735 mmHg 11%
    07:00 +37°C° 0 mm 5 mps 736 mmHg 9%
    08:00 +40°C° 0 mm 5 mps 736 mmHg 7%
    09:00 +42°C° 0 mm 6 mps 736 mmHg 6%
    10:00 +46°C° 0 mm 7 mps 737 mmHg 6%
    11:00 +49°C° 0 mm 7 mps 737 mmHg 5%
    12:00 +49°C° 0 mm 7 mps 736 mmHg 5%
    13:00 +50°C° 0 mm 7 mps 735 mmHg 4%
    14:00 +50°C° 0 mm 7 mps 734 mmHg 4%
    15:00 +50°C° 0 mm 7 mps 734 mmHg 4%
    16:00 +49°C° 0 mm 7 mps 734 mmHg 4%
    17:00 +49°C° 0 mm 7 mps 733 mmHg 5%
    18:00 +46°C° 0 mm 6 mps 734 mmHg 5%
    19:00 +43°C° 0 mm 5 mps 735 mmHg 6%
    20:00 +40°C° 0 mm 4 mps 735 mmHg 6%
    21:00 +38°C° 0 mm 3 mps 735 mmHg 6%
    22:00 +37°C° 0 mm 3 mps 736 mmHg 6%
    23:00 +36°C° 0 mm 3 mps 736 mmHg 7%

    29 April, Monday

    Time Temperature Precipitation Wind Pressure Humidity
    00:00 +36°C° 0 mm 3 mps 735 mmHg 7%
    01:00 +35°C° 0 mm 2 mps 735 mmHg 8%
    02:00 +34°C° 0 mm 2 mps 735 mmHg 9%
    03:00 +32°C° 0 mm 1 mps 735 mmHg 9%
    04:00 +31°C° 0 mm 1 mps 735 mmHg 10%
    05:00 +31°C° 0 mm 1 mps 735 mmHg 10%
    06:00 +33°C° 0 mm 1 mps 735 mmHg 9%
    07:00 +35°C° 0 mm 1 mps 736 mmHg 9%
    08:00 +37°C° 0 mm 1 mps 737 mmHg 8%
    09:00 +40°C° 0 mm 1 mps 736 mmHg 7%
    10:00 +43°C° 0 mm 2 mps 736 mmHg 6%
    11:00 +46°C° 0 mm 3 mps 736 mmHg 5%
    12:00 +48°C° 0 mm 4 mps 736 mmHg 5%
    13:00 +49°C° 0 mm 5 mps 735 mmHg 4%
    14:00 +51°C° 0 mm 6 mps 734 mmHg 4%
    15:00 +49°C° 0 mm 5 mps 734 mmHg 4%
    16:00 +49°C° 0 mm 5 mps 733 mmHg 5%
    17:00 +48°C° 0 mm 5 mps 733 mmHg 5%
    18:00 +45°C° 0 mm 4 mps 734 mmHg 6%
    19:00 +43°C° 0 mm 3 mps 734 mmHg 7%
    20:00 +40°C° 0 mm 3 mps 734 mmHg 7%
    21:00 +39°C° 0 mm 3 mps 734 mmHg 8%
    22:00 +38°C° 0 mm 3 mps 735 mmHg 8%
    23:00 +37°C° 0 mm 2 mps 735 mmHg 9%

    30 April, Tuesday

    Time Temperature Precipitation Wind Pressure Humidity
    00:00 +36°C° 0 mm 2 mps 734 mmHg 9%
    01:00 +35°C° 0 mm 2 mps 734 mmHg 9%
    02:00 +35°C° 0 mm 2 mps 733 mmHg 10%
    03:00 +34°C° 0 mm 2 mps 734 mmHg 10%
    04:00 +32°C° 0 mm 2 mps 734 mmHg 11%
    05:00 +32°C° 0 mm 2 mps 734 mmHg 11%
    06:00 +35°C° 0 mm 2 mps 735 mmHg 10%
    07:00 +37°C° 0 mm 2 mps 735 mmHg 9%
    08:00 +39°C° 0 mm 3 mps 736 mmHg 8%
    09:00 +42°C° 0 mm 3 mps 736 mmHg 7%
    10:00 +45°C° 0 mm 3 mps 735 mmHg 6%
    11:00 +47°C° 0 mm 3 mps 735 mmHg 5%
    12:00 +48°C° 0 mm 3 mps 734 mmHg 5%
    13:00 +48°C° 0 mm 3 mps 734 mmHg 4%
    14:00 +50°C° 0 mm 3 mps 733 mmHg 4%
    15:00 +49°C° 0 mm 2 mps 732 mmHg 4%
    16:00 +48°C° 0 mm 2 mps 732 mmHg 4%
    17:00 +48°C° 0 mm 2 mps 731 mmHg 4%
    18:00 +46°C° 0 mm 2 mps 732 mmHg 5%
    19:00 +43°C° 0 mm 2 mps 732 mmHg 6%
    20:00 +41°C° 0 mm 2 mps 733 mmHg 6%
    21:00 +39°C° 0 mm 2 mps 733 mmHg 7%
    22:00 +38°C° 0 mm 2 mps 733 mmHg 7%
    23:00 +37°C° 0 mm 2 mps 733 mmHg 8%
    Show more